User: anonymous   Login
Location: Rowland
(34.5359°N, 79.2929°W)
Time: 12:11:43
(UTC+00:00)
Language:

Courier 1B Rocket - Orbit

View from above orbital plane
View from above orbital plane
View from above satellite
View from above satellite

Ground track
Ground track

The orbit data is extracted from the following two-line orbital elements,

1 00059U 60013B   22277.82886381  .00000136  00000-0  63255-4 0  9993
2 00059  28.2472 226.4468 0189296 131.4104 230.2875 13.53006878 60006
Epoch (UTC): 04 October 2022 19:53:33
Eccentricity: 0.0189296
inclination: 28.2472°
perigee height: 920 km
apogee height: 1202 km
right ascension of ascending node: 226.4468°
argument of perigee: 131.4104°
revolutions per day: 13.53006878
mean anomaly at epoch: 230.2875°
orbit number at epoch: 6000

The dashed part of the orbit path shows where the satellite is in the earth's shadow,  

DLR